Weather History for KPQL - July, 2013

Change the Weather History Date:

Saturday, July 6, 2013

  Actual Average Record
Temperature  
Mean Temperature 74 °F -  
Max Temperature 78 °F 89 °F 98 °F (1998)
Min Temperature 71 °F 73 °F 66 °F (2000)
Cooling Degree Days 10    
Growing Degree Days 24 (Base 50)    
Moisture  
Dew Point 72 °F    
Average Humidity 92    
Maximum Humidity 100    
Minimum Humidity 78    
Precipitation  
Precipitation 1.38 in - - ()
Sea Level Pressure  
Sea Level Pressure 30.03 in    
Wind  
Wind Speed 4 mph (East)    
Max Wind Speed 10 mph    
Max Gust Speed 23 mph    
Visibility 8 miles    
Events Fog , Rain    
Averages and records for this station are not official NWS values.
T = Trace of Precipitation, MM = Missing Value Source: NWS Daily Summary

Daily Weather History Graph

Daily Weather History Graph

Search for Another Location

Airport or City:

Trip Planner

Search our weather history database for the weather conditions in past years. The results will help you decide how hot, cold, wet, or windy it might be!

Date:

Astronomy

Jul. 06, 2013 Rise Set
Actual Time 5:57 AM CDT 7:59 PM CDT
Civil Twilight 5:30 AM CDT 8:27 PM CDT
Nautical Twilight 4:57 AM CDT 9:00 PM CDT
Astronomical Twilight 4:21 AM CDT 9:36 PM CDT
Moon 4:40 AM CDT (7/6) 6:45 PM CDT (7/6)
Length of Visible Light 14h 56m
Length of Day
14h 02m
Waning Crescent, 2% of the Moon is Illuminated
Jul 6
Waning Crescent
Jul 8
New
Jul 15
First Quarter
Jul 22
Full
Jul 29
Last Quarter

Hourly Weather History & Observations

Time (CDT) Temp. Dew Point Humidity Pressure Visibility Wind Dir Wind Speed Gust Speed Precip Events Conditions
12:53 AM 73.0 °F 71.1 °F 93% 30.03 in 10.0 mi Calm Calm - 0.00 in   Mostly Cloudy
1:53 AM 73.0 °F 71.1 °F 93% 30.02 in 10.0 mi Calm Calm - 0.00 in   Overcast
2:53 AM 73.0 °F 71.1 °F 93% 30.00 in 10.0 mi Calm Calm - N/A   Overcast
3:53 AM 73.0 °F 71.1 °F 93% 29.99 in 3.0 mi ENE 4.6 mph - 0.05 in Rain Rain
4:53 AM 73.0 °F 72.0 °F 96% 29.99 in 10.0 mi ENE 6.9 mph - 0.01 in   Mostly Cloudy
5:03 AM 73.4 °F 71.6 °F 94% 29.99 in 2.5 mi East 5.8 mph - 0.09 in Rain Heavy Rain
5:06 AM 73.4 °F 71.6 °F 94% 29.98 in 1.8 mi ENE 10.4 mph - 0.15 in Rain Heavy Rain
5:10 AM 73.4 °F 71.6 °F 94% 29.99 in 2.0 mi Calm Calm - 0.18 in Rain Heavy Rain
5:20 AM 73.4 °F 71.6 °F 94% 29.99 in 10.0 mi ENE 4.6 mph - 0.19 in Rain Light Rain
5:28 AM 73.4 °F 71.6 °F 94% 29.99 in 10.0 mi ENE 8.1 mph - 0.19 in Rain Light Rain
5:53 AM 73.0 °F 72.0 °F 96% 30.01 in 4.0 mi South 6.9 mph - 0.25 in Rain Heavy Rain
5:59 AM 73.4 °F 71.6 °F 94% 30.01 in 2.5 mi West 5.8 mph 23.0 mph 0.06 in Rain Heavy Rain
6:24 AM 73.4 °F 71.6 °F 94% 30.02 in 3.0 mi Calm Calm - 0.16 in Rain Heavy Rain
6:37 AM 73.4 °F 71.6 °F 94% 30.02 in 7.0 mi NW 6.9 mph - 0.17 in Rain Light Rain
6:53 AM 72.0 °F 71.1 °F 97% 30.02 in 6.0 mi NNW 5.8 mph - 0.20 in Rain Rain
7:09 AM 71.6 °F 71.6 °F 100% 30.01 in 1.2 mi NW 8.1 mph - 0.12 in Rain Light Rain
7:18 AM 71.6 °F 71.6 °F 100% 30.02 in 0.5 mi NW 4.6 mph - 0.31 in Fog , Rain Heavy Rain
7:30 AM 73.4 °F 71.6 °F 94% 30.02 in 2.5 mi Calm Calm - 0.40 in Rain Light Rain
7:32 AM 73.4 °F 71.6 °F 94% 30.03 in 5.0 mi East 3.5 mph - 0.40 in Rain Light Rain
7:53 AM 73.0 °F 71.1 °F 93% 30.04 in 6.0 mi NNE 5.8 mph - 0.43 in Rain Rain
8:01 AM 73.4 °F 71.6 °F 94% 30.03 in 10.0 mi North 5.8 mph - 0.00 in Rain Light Rain
8:12 AM 73.4 °F 71.6 °F 94% 30.04 in 9.0 mi ENE 4.6 mph - 0.00 in Rain Light Rain
8:32 AM 73.4 °F 71.6 °F 94% 30.04 in 10.0 mi NNE 4.6 mph - 0.00 in Rain Light Rain
8:45 AM 73.4 °F 71.6 °F 94% 30.05 in 5.0 mi East 5.8 mph - 0.03 in Rain Light Rain
8:53 AM 73.0 °F 71.1 °F 93% 30.05 in 4.0 mi NE 4.6 mph - 0.03 in Rain Light Rain
9:05 AM 73.4 °F 71.6 °F 94% 30.06 in 2.0 mi Variable 4.6 mph - 0.06 in Rain Light Rain
9:08 AM 73.4 °F 71.6 °F 94% 30.06 in 0.8 mi ESE 4.6 mph - 0.18 in Rain Heavy Rain
9:26 AM 73.4 °F 71.6 °F 94% 30.05 in 2.0 mi ENE 6.9 mph - 0.36 in Rain Rain
9:32 AM 73.4 °F 71.6 °F 94% 30.05 in 7.0 mi East 5.8 mph - 0.36 in Rain Light Rain
9:53 AM 73.9 °F 72.0 °F 93% 30.06 in 10.0 mi East 6.9 mph - 0.36 in Rain Light Rain
10:00 AM 73.4 °F 71.6 °F 94% 30.05 in 10.0 mi East 6.9 mph - 0.00 in Rain Light Rain
10:15 AM 73.4 °F 71.6 °F 94% 30.05 in 8.0 mi East 5.8 mph - 0.00 in Rain Light Rain
10:53 AM 75.0 °F 72.0 °F 90% 30.06 in 10.0 mi East 4.6 mph - 0.00 in   Overcast
11:53 AM 75.0 °F 73.0 °F 94% 30.06 in 9.0 mi East 4.6 mph - 0.01 in Rain Light Rain
12:31 PM 75.2 °F 73.4 °F 94% 30.05 in 9.0 mi ESE 6.9 mph - 0.00 in Rain Light Rain
12:53 PM 75.9 °F 73.0 °F 91% 30.04 in 10.0 mi SE 6.9 mph - 0.00 in   Overcast
1:26 PM 75.2 °F 71.6 °F 89% 30.03 in 10.0 mi ESE 8.1 mph - 0.00 in Rain Light Rain
1:37 PM 75.2 °F 71.6 °F 89% 30.03 in 10.0 mi SE 9.2 mph - 0.00 in Rain Light Rain
1:51 PM 75.2 °F 73.4 °F 94% 30.03 in 9.0 mi East 4.6 mph - 0.01 in Rain Light Rain
1:53 PM 75.9 °F 73.0 °F 91% 30.03 in 9.0 mi ESE 5.8 mph - 0.01 in Rain Light Rain
2:25 PM 77.0 °F 73.4 °F 89% 30.03 in 10.0 mi East 3.5 mph - 0.00 in   Mostly Cloudy
2:53 PM 78.1 °F 73.0 °F 84% 30.02 in 10.0 mi ENE 4.6 mph - 0.00 in   Mostly Cloudy
3:10 PM 78.8 °F 73.4 °F 83% 30.01 in 10.0 mi ENE 3.5 mph - N/A   Overcast
3:43 PM 78.8 °F 71.6 °F 78% 30.01 in 10.0 mi East 5.8 mph - N/A   Overcast
3:53 PM 77.0 °F 72.0 °F 84% 30.02 in 10.0 mi East 5.8 mph - N/A   Overcast
4:16 PM 77.0 °F 73.4 °F 89% 30.01 in 10.0 mi ESE 3.5 mph - 0.00 in Rain Light Rain
4:53 PM 77.0 °F 73.0 °F 88% 30.02 in 10.0 mi Calm Calm - 0.01 in Rain Light Rain
5:29 PM 77.0 °F 73.4 °F 89% 30.01 in 10.0 mi ESE 6.9 mph - 0.00 in Rain Light Rain
5:53 PM 77.0 °F 73.0 °F 88% 30.01 in 10.0 mi ESE 5.8 mph - 0.00 in   Mostly Cloudy
6:20 PM 77.0 °F 71.6 °F 83% 30.01 in 10.0 mi ESE 5.8 mph - 0.00 in   Mostly Cloudy
6:53 PM 75.9 °F 73.0 °F 91% 30.02 in 10.0 mi ESE 4.6 mph - 0.00 in Rain Light Rain
7:05 PM 77.0 °F 73.4 °F 89% 30.02 in 10.0 mi East 3.5 mph - 0.00 in Rain Light Rain
7:13 PM 75.2 °F 73.4 °F 94% 30.02 in 10.0 mi ESE 4.6 mph - 0.00 in Rain Light Rain
7:23 PM 75.2 °F 73.4 °F 94% 30.02 in 10.0 mi ESE 4.6 mph - 0.00 in Rain Light Rain
7:53 PM 75.9 °F 73.0 °F 91% 30.03 in 10.0 mi East 3.5 mph - 0.00 in   Mostly Cloudy
8:53 PM 75.9 °F 73.0 °F 91% 30.04 in 10.0 mi ESE 4.6 mph - 0.00 in Rain Light Rain
9:53 PM 75.9 °F 73.0 °F 91% 30.05 in 10.0 mi SE 4.6 mph - 0.00 in   Clear
10:53 PM 75.9 °F 73.0 °F 91% 30.06 in 10.0 mi Calm Calm - N/A   Mostly Cloudy
11:31 PM 75.2 °F 73.4 °F 94% 30.06 in 8.0 mi Calm Calm - 0.02 in Rain Light Rain
11:50 PM 75.2 °F 73.4 °F 94% 30.06 in 10.0 mi Calm Calm - 0.02 in Rain Light Rain
11:53 PM 75.0 °F 73.0 °F 94% 30.06 in 9.0 mi Calm Calm - 0.02 in Rain Light Rain